PAKSAT MM1R

导读 | 星芒AI

PAKSAT MM1R 是巴基斯坦的通信卫星,由穆罕默德六世卫星公司运营,旨在提供广播、宽带和VSAT服务。该卫星于2011年发射,位于东经38.5度轨道位置,覆盖南亚、中东和非洲部分地区。它增强了巴基斯坦的通信能力,支持电视传输、互联网接入和政府通信需求。PAKSAT MM1R 是巴基斯坦在航天和通信领域的重要基础设施,促进了国家的数字化发展。

基本信息
目录编号:
59915
目录名称:
PAKSAT MM1R
国际标识:
2024-104A
轨道中心:
EARTH
卫星名称:
PAKSAT MM1R
卫星全名:
--
卫星状态:
在轨 (已飞行564 天)
发射日期:
2024-05-30 UTC
国别 :
巴基斯坦 (PK)
星等 :
--
轨道信息
数据来源 国际轨道数据 AOE轨道数据
星历时间 2025-12-15T06:09:41+0800
19小时前
查看轨道信息
2025-12-15T10:00:00+0800
16小时前
查看轨道信息
半长轴 42163.691km 42163.719km
偏心率 0.0002065 0.0002029
轨道倾角 0.046° 0.047°
近地点辐角 187.348° 187.254°
升交点赤经 101.699° 100.127°
平近点角 165.461° 224.866°
近地点 35776.849km 35777.028km
远地点 35794.263km 35794.14km
周期 1436.044分钟 1436.045分钟
每日圈数 1.002755 1.002754
详细信息
使用方式:
暂无
2D轨道图
3D轨道图
轨道高度分析图
轨道倾角分析图
轨道综合分析图
查看轨道综合分析图